ISS DEB (44303 NORAD) Tracking and Keplerian Element Data

This shows tracking and keplerian element data for the satellite.

Feedback or suggestion? Click here.




ElementValue
Catalog44303
NameISS DEB
Epoch Orbit681
Epoch Day193.73439884
Epoch Year2019
RAAN234.3917
Inclination51.6411
Eccentricity0.0006308
Argument of Perigee139.7657
Mean Anonmoly220.3801
Mean Motion15.51699313
Decay Rate2.598E-05
L11 44303U 98067QA 19193.73439884 .00002598 00000-0 50527-4 0 9990
L22 44303 51.6411 234.3917 0006308 139.7657 220.3801 15.51699313 6812

Live tracking and technical data element details for ISS DEB (NORAD 44303). ISS DEB can be tracked NOW for your location showing map with azimuth and elevation plus other details from your city location.

Track the satellite on the map from your city or location and see movement details for azimuth, elevation, latitude, longitude, range, height, and movement on the map or in text.







IsCatalogInMostPopularTable: catalog: 44303, numindb: 11
Update: records affected: 1



GetName: 44303 ISS DEB

Hit Count: updated at: Tue, 16 Jul 2019 14:00:22 GMT